Date String (YYYY-MM-DD hh:mm:ss) UTC,Instrument flags,Ambient pressure (hPa),Sample flow (lpm),Bypass flow (lpm),Sample temperature (°C),Ambient temperature (°C),ASC tube jacket temperature (°C),LED temperature (°C),Box temperature (°C),Sample RH (%),Span deviation,Mass concentration (μg/m³),Mass concentration (μg/m³),Mass concentration (μg/m³)
DateTimeUTC,F1_M11,P_M11,Q1_M11,Q2_M11,T1_M11,T2_M11,T3_M11,T4_M11,T5_M11,U1_M11,ZSPAN_M11,X0_M11,X2_M11,X1_M11
2022-02-27 06:00:00,,0832.5,5.00,0.00,21.7,21.9,00.0,30.8,23.4,06.7,0003.0,0011.81,0008.00,0007.33
2022-02-27 06:01:00,,0832.5,5.02,0.00,21.8,22.7,00.0,30.9,23.7,06.7,0002.6,0011.87,0007.94,0007.28
2022-02-27 06:02:00,,0832.5,4.99,0.00,22.0,23.0,00.0,30.9,23.9,06.6,0002.3,0011.96,0007.90,0007.23
2022-02-27 06:03:00,,0832.4,5.00,0.00,22.0,22.6,00.0,30.9,23.9,06.6,0003.1,0011.99,0007.85,0007.19
2022-02-27 06:04:00,,0832.5,5.00,0.00,22.0,22.3,00.0,30.9,23.8,06.6,0003.4,0011.96,0007.83,0007.15
2022-02-27 06:05:00,,0832.5,4.99,0.00,21.9,22.0,00.0,30.9,23.6,06.6,0002.5,0012.06,0007.84,0007.13
2022-02-27 06:06:00,,0832.5,5.01,0.00,21.9,21.8,00.0,30.9,23.6,06.6,0003.0,0012.04,0007.82,0007.11
2022-02-27 06:07:00,,0832.5,5.00,0.00,21.8,21.5,00.0,30.9,23.4,06.6,0003.1,0011.88,0007.80,0007.09
2022-02-27 06:08:00,,0832.5,5.00,0.00,21.8,21.3,00.0,30.9,23.4,06.6,0003.6,0011.72,0007.77,0007.08
2022-02-27 06:09:00,,0832.5,5.00,0.00,21.8,21.2,00.0,30.9,23.3,06.6,0003.7,0011.67,0007.77,0007.08
2022-02-27 06:10:00,,0832.5,5.00,0.00,21.7,21.1,00.0,30.9,23.2,06.7,0004.5,0011.67,0007.76,0007.06
2022-02-27 06:11:00,,0832.5,4.99,0.00,21.6,20.9,00.0,30.8,23.2,06.7,0005.2,0011.58,0007.73,0007.05
2022-02-27 06:12:00,,0832.5,5.00,0.00,21.6,20.8,00.0,30.8,23.1,06.7,0005.7,0011.33,0007.67,0007.01
2022-02-27 06:13:00,,0832.5,4.99,0.00,21.6,20.8,00.0,30.8,23.1,06.7,0005.7,0011.26,0007.57,0006.93
2022-02-27 06:14:00,,0832.5,5.00,0.00,21.6,21.2,00.0,30.8,23.2,06.6,0005.4,0011.15,0007.50,0006.87
2022-02-27 06:15:00,,0832.5,5.00,0.00,21.7,22.0,00.0,30.8,23.5,06.6,0005.1,0011.07,0007.42,0006.81
2022-02-27 06:16:00,,0832.5,5.01,0.00,21.9,22.7,00.0,30.9,23.8,06.5,0005.3,0010.98,0007.29,0006.70
2022-02-27 06:17:00,,0832.5,5.01,0.00,22.0,22.9,00.0,30.9,24.0,06.4,0005.0,0011.12,0007.10,0006.57
2022-02-27 06:18:00,,0832.5,5.00,0.00,22.0,22.5,00.0,30.9,23.9,06.3,0004.5,0011.11,0006.99,0006.47
2022-02-27 06:19:00,,0832.5,4.99,0.00,22.0,22.2,00.0,30.9,23.7,06.3,0004.0,0011.24,0006.93,0006.40
2022-02-27 06:20:00,,0832.5,4.99,0.00,21.9,21.9,00.0,30.9,23.6,06.4,0002.7,0011.54,0006.89,0006.34
2022-02-27 06:21:00,,0832.4,5.01,0.00,21.9,21.6,00.0,30.9,23.5,06.4,0002.3,0011.56,0006.88,0006.32
2022-02-27 06:22:00,,0832.5,5.00,0.00,21.8,21.4,00.0,30.9,23.4,06.4,0001.8,0011.60,0006.86,0006.29
2022-02-27 06:23:00,,0832.5,5.00,0.00,21.7,21.2,00.0,30.9,23.3,06.4,0001.2,0011.63,0006.85,0006.28
2022-02-27 06:24:00,,0832.5,5.01,0.00,21.7,21.1,00.0,30.9,23.2,06.5,0001.0,0011.64,0006.89,0006.34
2022-02-27 06:25:00,,0832.4,5.00,0.00,21.6,21.0,00.0,30.8,23.2,06.5,0001.3,0011.58,0006.93,0006.38
2022-02-27 06:26:00,,0832.5,5.00,0.00,21.6,20.8,00.0,30.8,23.1,06.5,0001.3,0011.57,0006.95,0006.40
2022-02-27 06:27:00,,0832.5,5.00,0.00,21.5,20.7,00.0,30.8,23.1,06.4,0001.4,0011.51,0006.97,0006.42
2022-02-27 06:28:00,,0832.5,5.01,0.00,21.6,21.3,00.0,30.8,23.2,06.3,0001.8,0011.04,0007.00,0006.44
2022-02-27 06:29:00,,0832.5,5.01,0.00,21.7,22.2,00.0,30.8,23.5,06.3,0001.7,0010.94,0006.96,0006.39
2022-02-27 06:30:00,,0832.5,4.99,0.00,21.9,22.9,00.0,30.9,23.8,06.2,0001.6,0010.90,0006.88,0006.30
2022-02-27 06:31:00,,0832.5,5.01,0.00,22.0,23.0,00.0,30.9,24.0,06.1,0002.0,0010.47,0006.77,0006.20
2022-02-27 06:32:00,,0832.5,4.98,0.00,22.0,22.6,00.0,30.9,23.9,06.2,0002.5,0010.24,0006.56,0006.04
2022-02-27 06:33:00,,0832.4,4.99,0.00,22.0,22.3,00.0,30.9,23.8,06.2,0002.7,0009.92,0006.39,0005.91
2022-02-27 06:34:00,,0832.5,5.01,0.00,21.9,22.0,00.0,30.9,23.6,06.2,0003.3,0009.92,0006.31,0005.81
2022-02-27 06:35:00,,0832.4,5.01,0.00,21.9,21.7,00.0,30.9,23.5,06.2,0003.8,0010.07,0006.24,0005.74
2022-02-27 06:36:00,,0832.5,4.98,0.00,21.9,21.5,00.0,30.9,23.5,06.3,0003.9,0009.95,0006.17,0005.68
2022-02-27 06:37:00,,0832.4,5.01,0.00,21.8,21.3,00.0,30.9,23.4,06.3,0003.6,0009.82,0006.09,0005.63
2022-02-27 06:38:00,,0832.5,5.01,0.00,21.8,21.1,00.0,30.9,23.3,06.4,0003.3,0010.18,0006.11,0005.64
2022-02-27 06:39:00,,0832.5,5.00,0.00,21.7,21.0,00.0,30.9,23.3,06.5,0002.8,0010.34,0006.16,0005.68
2022-02-27 06:40:00,,0832.5,5.00,0.00,21.7,20.9,00.0,30.8,23.3,06.5,0002.7,0010.72,0006.32,0005.81
2022-02-27 06:41:00,,0832.5,5.00,0.00,21.6,20.8,00.0,30.8,23.2,06.6,0003.6,0011.11,0006.53,0005.99
2022-02-27 06:42:00,,0832.5,5.01,0.00,21.6,20.8,00.0,30.8,23.2,06.6,0003.8,0011.30,0006.68,0006.16
2022-02-27 06:43:00,,0832.5,5.00,0.00,21.7,21.5,00.0,30.8,23.4,06.6,0003.3,0011.44,0006.86,0006.31
2022-02-27 06:44:00,,0832.5,5.01,0.00,21.8,22.3,00.0,30.8,23.7,06.6,0003.3,0011.76,0007.08,0006.51
2022-02-27 06:45:00,,0832.5,4.99,0.00,22.0,22.9,00.0,30.9,23.9,06.5,0003.2,0012.13,0007.23,0006.65
2022-02-27 06:46:00,,0832.5,5.00,0.00,22.0,22.6,00.0,30.9,23.9,06.5,0002.9,0012.21,0007.37,0006.77
2022-02-27 06:47:00,,0832.5,4.99,0.00,22.0,22.2,00.0,30.9,23.8,06.5,0003.1,0012.36,0007.50,0006.88
2022-02-27 06:48:00,,0832.5,5.02,0.00,22.0,22.0,00.0,30.9,23.7,06.6,0003.3,0012.51,0007.61,0006.97
2022-02-27 06:49:00,,0832.4,4.99,0.00,21.9,21.7,00.0,30.9,23.6,06.7,0003.3,0012.77,0007.77,0007.11
2022-02-27 06:50:00,,0832.5,5.01,0.00,21.9,21.6,00.0,30.9,23.5,06.7,0003.8,0012.75,0007.93,0007.27
2022-02-27 06:51:00,,0832.5,5.00,0.00,21.9,21.4,00.0,30.9,23.5,06.7,0004.1,0013.29,0008.05,0007.40
2022-02-27 06:52:00,,0832.5,5.00,0.00,21.8,21.3,00.0,30.9,23.5,06.7,0004.1,0013.09,0008.13,0007.51
2022-02-27 06:53:00,,0832.5,4.99,0.00,21.8,21.3,00.0,30.9,23.4,06.8,0004.1,0013.26,0008.24,0007.60
2022-02-27 06:54:00,,0832.5,5.00,0.00,21.8,21.2,00.0,30.9,23.4,06.8,0004.2,0013.60,0008.36,0007.72
2022-02-27 06:55:00,,0832.5,5.01,0.00,21.7,21.1,00.0,30.9,23.4,06.8,0004.7,0013.72,0008.48,0007.84
2022-02-27 06:56:00,,0832.5,5.00,0.00,21.7,21.1,00.0,30.8,23.3,06.8,0004.5,0014.11,0008.60,0007.91
2022-02-27 06:57:00,,0832.5,4.99,0.00,21.7,21.4,00.0,30.8,23.4,06.8,0003.6,0013.84,0008.67,0007.99
2022-02-27 06:58:00,,0832.5,5.00,0.00,21.9,22.1,00.0,30.9,23.7,06.7,0003.3,0013.87,0008.74,0008.07
2022-02-27 06:59:00,,0832.5,5.01,0.00,22.0,22.9,00.0,30.9,24.0,06.7,0003.5,0014.06,0008.84,0008.15
